| time (UTC) | temp C | wind direction | speed KPH | gust KPH | rain 1hr cm | rain 24hr cm | rain mn cm | humidity % | barometer mb |
| 20260510230925 | 20 | 116 | 6.4 | 20.9 | 0.00 | 0.00 | 0.00 | 32 | 1024.4 |
| 20260510230420 | 20 | 38 | 8.0 | 27.4 | 0.00 | 0.00 | 0.00 | 33 | 1024.2 |
| 20260510225917 | 20 | 142 | 9.7 | 17.7 | 0.00 | 0.00 | 0.00 | 32 | 1024.5 |
| 20260510225414 | 20 | 95 | 11.3 | 17.7 | 0.00 | 0.00 | 0.00 | 32 | 1024.4 |
| 20260510224910 | 20 | 85 | 9.7 | 24.1 | 0.00 | 0.00 | 0.00 | 33 | 1024.4 |
| 20260510224407 | 20 | 118 | 14.5 | 27.4 | 0.00 | 0.00 | 0.00 | 32 | 1024.2 |
| 20260510223903 | 20 | 71 | 12.9 | 22.5 | 0.00 | 0.00 | 0.00 | 33 | 1024.1 |
| 20260510223400 | 20 | 161 | 12.9 | 30.6 | 0.00 | 0.00 | 0.00 | 33 | 1024.2 |
| 20260510222858 | 20 | 64 | 11.3 | 27.4 | 0.00 | 0.00 | 0.00 | 33 | 1024.2 |
| 20260510222355 | 21 | 77 | 12.9 | 24.1 | 0.00 | 0.00 | 0.00 | 33 | 1024.1 |
| 20260510221850 | 21 | 122 | 14.5 | 22.5 | 0.00 | 0.00 | 0.00 | 32 | 1023.9 |
| 20260510221347 | 20 | 129 | 11.3 | 27.4 | 0.00 | 0.00 | 0.00 | 33 | 1024.1 |
| 20260510220843 | 20 | 164 | 11.3 | 22.5 | 0.00 | 0.00 | 0.00 | 33 | 1024.2 |
| 20260510220340 | 20 | 76 | 17.7 | 27.4 | 0.00 | 0.00 | 0.00 | 33 | 1024.4 |
| 20260510215836 | 20 | 148 | 12.9 | 24.1 | 0.00 | 0.00 | 0.00 | 34 | 1024.4 |
| 20260510215334 | 20 | 117 | 19.3 | 25.7 | 0.00 | 0.00 | 0.00 | 33 | 1024.4 |
| 20260510214831 | 21 | 102 | 16.1 | 25.7 | 0.00 | 0.00 | 0.00 | 33 | 1024.6 |
| 20260510214328 | 21 | 123 | 14.5 | 30.6 | 0.00 | 0.00 | 0.00 | 32 | 1024.7 |
| 20260510213825 | 21 | 139 | 11.3 | 24.1 | 0.00 | 0.00 | 0.00 | 33 | 1024.5 |
| 20260510213321 | 20 | 127 | 16.1 | 27.4 | 0.00 | 0.00 | 0.00 | 34 | 1024.6 |
| 20260510212818 | 21 | 136 | 11.3 | 29.0 | 0.00 | 0.00 | 0.00 | 33 | 1024.6 |
| 20260510212315 | 21 | 184 | 17.7 | 25.7 | 0.00 | 0.00 | 0.00 | 32 | 1024.6 |
| 20260510211812 | 20 | 147 | 6.4 | 14.5 | 0.00 | 0.00 | 0.00 | 32 | 1024.5 |
| 20260510211308 | 20 | 136 | 16.1 | 24.1 | 0.00 | 0.00 | 0.00 | 33 | 1024.4 |
| 20260510210804 | 19 | 134 | 11.3 | 22.5 | 0.00 | 0.00 | 0.00 | 35 | 1024.7 |
| 20260510210258 | 20 | 137 | 14.5 | 24.1 | 0.00 | 0.00 | 0.00 | 33 | 1024.6 |
| 20260510205758 | 19 | 169 | 9.7 | 22.5 | 0.00 | 0.00 | 0.00 | 35 | 1024.6 |
| 20260510205253 | 18 | 213 | 4.8 | 20.9 | 0.00 | 0.00 | 0.00 | 35 | 1024.5 |
| 20260510204750 | 19 | 225 | 8.0 | 25.7 | 0.00 | 0.00 | 0.00 | 35 | 1024.5 |
| 20260510204246 | 19 | 147 | 11.3 | 17.7 | 0.00 | 0.00 | 0.00 | 34 | 1024.5 |
| 20260510203743 | 20 | 137 | 16.1 | 25.7 | 0.00 | 0.00 | 0.00 | 34 | 1024.5 |
| 20260510203241 | 20 | 144 | 16.1 | 27.4 | 0.00 | 0.00 | 0.00 | 32 | 1024.2 |
| 20260510202741 | 20 | 147 | 12.9 | 22.5 | 0.00 | 0.00 | 0.00 | 34 | 1024.2 |
| 20260510202236 | 19 | 154 | 16.1 | 24.1 | 0.00 | 0.00 | 0.00 | 34 | 1024.4 |
| 20260510201734 | 20 | 110 | 19.3 | 27.4 | 0.00 | 0.00 | 0.00 | 32 | 1024.4 |
| 20260510201230 | 21 | 145 | 24.1 | 35.4 | 0.00 | 0.00 | 0.00 | 32 | 1024.0 |
| 20260510200727 | 22 | 83 | 14.5 | 24.1 | 0.00 | 0.00 | 0.00 | 29 | 1023.9 |
| 20260510200225 | 21 | 118 | 14.5 | 30.6 | 0.00 | 0.00 | 0.00 | 30 | 1023.9 |
| 20260510195721 | 21 | 173 | 6.4 | 27.4 | 0.00 | 0.00 | 0.00 | 31 | 1024.0 |
| 20260510195218 | 20 | 128 | 17.7 | 25.7 | 0.00 | 0.00 | 0.00 | 31 | 1023.6 |
| 20260510194717 | 20 | 132 | 16.1 | 20.9 | 0.00 | 0.00 | 0.00 | 31 | 1023.6 |
| 20260510194214 | 20 | 132 | 16.1 | 24.1 | 0.00 | 0.00 | 0.00 | 30 | 1024.0 |
| 20260510193710 | 21 | 140 | 8.0 | 14.5 | 0.00 | 0.00 | 0.00 | 28 | 1023.5 |
| 20260510193210 | 20 | 70 | 6.4 | 11.3 | 0.00 | 0.00 | 0.00 | 29 | 1023.8 |
| 20260510192706 | 20 | 139 | 3.2 | 6.4 | 0.00 | 0.00 | 0.00 | 31 | 1023.8 |
| 20260510192201 | 20 | 98 | 6.4 | 9.7 | 0.00 | 0.00 | 0.00 | 31 | 1023.8 |
| 20260510191657 | 20 | 74 | 3.2 | 9.7 | 0.00 | 0.00 | 0.00 | 34 | 1024.0 |
| 20260510191154 | 18 | 95 | 4.8 | 14.5 | 0.00 | 0.00 | 0.00 | 36 | 1024.0 |
| 20260510190652 | 19 | 77 | 1.6 | 12.9 | 0.00 | 0.00 | 0.00 | 36 | 1023.8 |
| 20260510190149 | 19 | 105 | 8.0 | 11.3 | 0.00 | 0.00 | 0.00 | 31 | 1023.8 |
| 20260510185645 | 20 | 97 | 6.4 | 20.9 | 0.00 | 0.00 | 0.00 | 30 | 1023.8 |
| 20260510185143 | 20 | 81 | 12.9 | 17.7 | 0.00 | 0.00 | 0.00 | 30 | 1023.8 |
| 20260510184640 | 20 | 100 | 4.8 | 9.7 | 0.00 | 0.00 | 0.00 | 30 | 1023.9 |
| 20260510184136 | 20 | 141 | 3.2 | 6.4 | 0.00 | 0.00 | 0.00 | 30 | 1023.8 |
| 20260510183631 | 20 | 85 | 6.4 | 12.9 | 0.00 | 0.00 | 0.00 | 29 | 1023.9 |
| 20260510183127 | 20 | 70 | 8.0 | 11.3 | 0.00 | 0.00 | 0.00 | 29 | 1023.6 |
| 20260510182624 | 20 | 130 | 4.8 | 17.7 | 0.00 | 0.00 | 0.00 | 29 | 1023.9 |
| 20260510182119 | 20 | 38 | 11.3 | 20.9 | 0.00 | 0.00 | 0.00 | 29 | 1023.9 |
| 20260510181617 | 20 | 79 | 9.7 | 14.5 | 0.00 | 0.00 | 0.00 | 30 | 1024.0 |
| 20260510181113 | 21 | 47 | 6.4 | 11.3 | 0.00 | 0.00 | 0.00 | 28 | 1024.0 |
| 20260510180609 | 21 | 62 | 6.4 | 14.5 | 0.00 | 0.00 | 0.00 | 29 | 1023.9 |
| 20260510180107 | 21 | 64 | 8.0 | 16.1 | 0.00 | 0.00 | 0.00 | 28 | 1023.6 |
| 20260510175602 | 21 | 82 | 14.5 | 20.9 | 0.00 | 0.00 | 0.00 | 29 | 1023.9 |
| 20260510175058 | 21 | 66 | 8.0 | 14.5 | 0.00 | 0.00 | 0.00 | 30 | 1024.0 |
| 20260510174557 | 20 | 190 | 4.8 | 16.1 | 0.00 | 0.00 | 0.00 | 31 | 1024.1 |
| 20260510174053 | 19 | 24 | 6.4 | 16.1 | 0.00 | 0.00 | 0.00 | 33 | 1023.9 |
| 20260510173548 | 20 | 104 | 3.2 | 11.3 | 0.00 | 0.00 | 0.00 | 31 | 1023.9 |
| 20260510173046 | 20 | 128 | 4.8 | 14.5 | 0.00 | 0.00 | 0.00 | 31 | 1024.0 |
| 20260510172541 | 20 | 137 | 6.4 | 20.9 | 0.00 | 0.00 | 0.00 | 32 | 1024.1 |
| 20260510172038 | 20 | 108 | 6.4 | 22.5 | 0.00 | 0.00 | 0.00 | 31 | 1023.9 |
| 20260510171535 | 20 | 58 | 14.5 | 20.9 | 0.00 | 0.00 | 0.00 | 31 | 1023.8 |
| 20260510171033 | 20 | 45 | 17.7 | 24.1 | 0.00 | 0.00 | 0.00 | 30 | 1023.9 |
| 20260510170529 | 21 | 36 | 8.0 | 17.7 | 0.00 | 0.00 | 0.00 | 30 | 1023.9 |
| 20260510170025 | 21 | 143 | 16.1 | 22.5 | 0.00 | 0.00 | 0.00 | 29 | 1023.8 |
| 20260510165520 | 21 | 113 | 4.8 | 20.9 | 0.00 | 0.00 | 0.00 | 28 | 1023.8 |
| 20260510165017 | 21 | 89 | 9.7 | 22.5 | 0.00 | 0.00 | 0.00 | 29 | 1023.5 |
| 20260510164514 | 20 | 125 | 9.7 | 16.1 | 0.00 | 0.00 | 0.00 | 29 | 1023.6 |
| 20260510164010 | 21 | 101 | 11.3 | 20.9 | 0.00 | 0.00 | 0.00 | 27 | 1023.8 |
| 20260510163506 | 20 | 134 | 9.7 | 14.5 | 0.00 | 0.00 | 0.00 | 26 | 1023.9 |
| 20260510163001 | 20 | 84 | 9.7 | 17.7 | 0.00 | 0.00 | 0.00 | 26 | 1023.5 |
| 20260510162452 | 20 | 59 | 1.6 | 12.9 | 0.00 | 0.00 | 0.00 | 28 | 1023.4 |
| 20260510161948 | 20 | 155 | 4.8 | 11.3 | 0.00 | 0.00 | 0.00 | 27 | 1023.5 |
| 20260510161444 | 20 | 193 | 11.3 | 20.9 | 0.00 | 0.00 | 0.00 | 27 | 1023.3 |
| 20260510160941 | 20 | 17 | 4.8 | 6.4 | 0.00 | 0.00 | 0.00 | 27 | 1023.5 |
| 20260510160438 | 20 | 205 | 11.3 | 17.7 | 0.00 | 0.00 | 0.00 | 28 | 1023.5 |
| 20260510155936 | 20 | 170 | 12.9 | 17.7 | 0.00 | 0.00 | 0.00 | 28 | 1023.3 |
| 20260510155429 | 20 | 94 | 8.0 | 12.9 | 0.00 | 0.00 | 0.00 | 27 | 1023.4 |
| 20260510154925 | 20 | 68 | 9.7 | 17.7 | 0.00 | 0.00 | 0.00 | 28 | 1023.6 |
| 20260510154421 | 19 | 154 | 6.4 | 14.5 | 0.00 | 0.00 | 0.00 | 28 | 1023.4 |
| 20260510153919 | 18 | 198 | 1.6 | 4.8 | 0.00 | 0.00 | 0.00 | 29 | 1023.4 |
| 20260510153417 | 18 | 146 | 4.8 | 12.9 | 0.00 | 0.00 | 0.00 | 29 | 1023.6 |
| 20260510152913 | 18 | 154 | 8.0 | 16.1 | 0.00 | 0.00 | 0.00 | 30 | 1023.5 |
| 20260510152411 | 18 | 175 | 6.4 | 14.5 | 0.00 | 0.00 | 0.00 | 30 | 1023.4 |
| 20260510151907 | 18 | 124 | 6.4 | 11.3 | 0.00 | 0.00 | 0.00 | 30 | 1023.3 |
| 20260510151404 | 18 | 156 | 6.4 | 14.5 | 0.00 | 0.00 | 0.00 | 30 | 1023.3 |
| 20260510150900 | 18 | 137 | 6.4 | 16.1 | 0.00 | 0.00 | 0.00 | 32 | 1023.3 |
| 20260510150356 | 17 | 108 | 3.2 | 12.9 | 0.00 | 0.00 | 0.00 | 32 | 1023.3 |
| 20260510145852 | 17 | 200 | 9.7 | 17.7 | 0.00 | 0.00 | 0.00 | 32 | 1023.5 |
| 20260510145349 | 17 | 131 | 14.5 | 17.7 | 0.00 | 0.00 | 0.00 | 32 | 1023.3 |
| 20260510144846 | 17 | 152 | 8.0 | 16.1 | 0.00 | 0.00 | 0.00 | 33 | 1023.0 |
| 20260510144343 | 17 | 172 | 11.3 | 20.9 | 0.00 | 0.00 | 0.00 | 32 | 1023.4 |
| 20260510143842 | 17 | 153 | 19.3 | 22.5 | 0.00 | 0.00 | 0.00 | 33 | 1023.3 |
| 20260510143339 | 17 | 145 | 11.3 | 16.1 | 0.00 | 0.00 | 0.00 | 32 | 1022.9 |
| 20260510142836 | 16 | 98 | 11.3 | 16.1 | 0.00 | 0.00 | 0.00 | 33 | 1023.0 |
| 20260510142332 | 16 | 154 | 11.3 | 16.1 | 0.00 | 0.00 | 0.00 | 33 | 1023.0 |
| 20260510141829 | 16 | 98 | 6.4 | 12.9 | 0.00 | 0.00 | 0.00 | 34 | 1023.1 |
| 20260510141327 | 16 | 160 | 8.0 | 20.9 | 0.00 | 0.00 | 0.00 | 34 | 1023.1 |
| 20260510140824 | 16 | 143 | 12.9 | 17.7 | 0.00 | 0.00 | 0.00 | 33 | 1022.8 |
| 20260510140320 | 16 | 211 | 9.7 | 20.9 | 0.00 | 0.00 | 0.00 | 33 | 1023.0 |
| 20260510135819 | 16 | 94 | 8.0 | 16.1 | 0.00 | 0.00 | 0.00 | 33 | 1022.8 |
| 20260510135315 | 16 | 128 | 6.4 | 16.1 | 0.00 | 0.00 | 0.00 | 33 | 1022.6 |
| 20260510134813 | 16 | 111 | 6.4 | 9.7 | 0.00 | 0.00 | 0.00 | 33 | 1022.6 |
| 20260510134310 | 15 | 166 | 4.8 | 11.3 | 0.00 | 0.00 | 0.00 | 33 | 1022.6 |
| 20260510133805 | 15 | 184 | 3.2 | 6.4 | 0.00 | 0.00 | 0.00 | 33 | 1022.5 |
| 20260510133302 | 15 | 171 | 3.2 | 4.8 | 0.00 | 0.00 | 0.00 | 33 | 1022.4 |
| 20260510132757 | 15 | 188 | 1.6 | 3.2 | 0.00 | 0.00 | 0.00 | 34 | 1022.4 |
| 20260510132256 | 15 | 188 | 1.6 | 3.2 | 0.00 | 0.00 | 0.00 | 34 | 1022.4 |
| 20260510131752 | 13 | 187 | 1.6 | 1.6 | 0.00 | 0.00 | 0.00 | 36 | 1022.5 |
| 20260510131250 | 13 | 222 | 0.0 | 0.0 | 0.00 | 0.00 | 0.00 | 37 | 1022.5 |
| 20260510130746 | 12 | 255 | 0.0 | 0.0 | 0.00 | 0.00 | 0.00 | 38 | 1022.3 |
| 20260510130243 | 12 | 274 | 1.6 | 1.6 | 0.00 | 0.00 | 0.00 | 38 | 1022.3 |
| 20260510125740 | 11 | 274 | 3.2 | 3.2 | 0.00 | 0.00 | 0.00 | 39 | 1022.2 |
| 20260510125236 | 11 | 272 | 1.6 | 1.6 | 0.00 | 0.00 | 0.00 | 39 | 1022.3 |
| 20260510124732 | 11 | 264 | 1.6 | 1.6 | 0.00 | 0.00 | 0.00 | 39 | 1022.0 |
| 20260510124230 | 12 | 278 | 1.6 | 1.6 | 0.00 | 0.00 | 0.00 | 38 | 1022.0 |
| 20260510123725 | 12 | 262 | 1.6 | 1.6 | 0.00 | 0.00 | 0.00 | 37 | 1021.9 |
| 20260510123221 | 13 | 283 | 3.2 | 3.2 | 0.00 | 0.00 | 0.00 | 35 | 1021.9 |
| 20260510122717 | 13 | 257 | 0.0 | 0.0 | 0.00 | 0.00 | 0.00 | 35 | 1021.8 |
| 20260510122214 | 13 | 230 | 0.0 | 0.0 | 0.00 | 0.00 | 0.00 | 34 | 1021.7 |
| 20260510121710 | 14 | 218 | 0.0 | 0.0 | 0.00 | 0.00 | 0.00 | 34 | 1021.7 |
| 20260510121208 | 15 | 199 | 1.6 | 1.6 | 0.00 | 0.00 | 0.00 | 33 | 1021.5 |
| 20260510120705 | 15 | 146 | 1.6 | 3.2 | 0.00 | 0.00 | 0.00 | 32 | 1021.5 |
| 20260510120201 | 15 | 222 | 0.0 | 4.8 | 0.00 | 0.00 | 0.00 | 31 | 1021.5 |
| 20260510115652 | 15 | 180 | 8.0 | 9.7 | 0.00 | 0.00 | 0.00 | 30 | 1021.7 |
| 20260510115150 | 15 | 182 | 1.6 | 4.8 | 0.00 | 0.00 | 0.00 | 30 | 1021.5 |
| 20260510114645 | 16 | 197 | 0.0 | 3.2 | 0.00 | 0.00 | 0.00 | 29 | 1021.4 |
| 20260510114142 | 16 | 214 | 1.6 | 6.4 | 0.00 | 0.00 | 0.00 | 29 | 1021.3 |
| 20260510113637 | 16 | 71 | 4.8 | 4.8 | 0.00 | 0.00 | 0.00 | 28 | 1021.5 |
| 20260510113134 | 16 | 170 | 3.2 | 3.2 | 0.00 | 0.00 | 0.00 | 29 | 1021.8 |
| 20260510112631 | 16 | 162 | 1.6 | 9.7 | 0.00 | 0.00 | 0.00 | 29 | 1021.7 |
| 20260510112127 | 16 | 72 | 9.7 | 14.5 | 0.00 | 0.00 | 0.00 | 29 | 1021.9 |
| 20260510111624 | 16 | 244 | 3.2 | 30.6 | 0.00 | 0.00 | 0.00 | 30 | 1022.9 |
| 20260510111120 | 16 | 287 | 4.8 | 17.7 | 0.00 | 0.00 | 0.00 | 27 | 1022.0 |
| 20260510110615 | 16 | 296 | 6.4 | 12.9 | 0.00 | 0.00 | 0.00 | 26 | 1022.0 |
| 20260510110114 | 16 | 240 | 4.8 | 6.4 | 0.00 | 0.00 | 0.00 | 27 | 1021.7 |
| 20260510105609 | 17 | 182 | 1.6 | 3.2 | 0.00 | 0.00 | 0.00 | 27 | 1021.5 |
| 20260510105109 | 17 | 161 | 3.2 | 14.5 | 0.00 | 0.00 | 0.00 | 26 | 1021.5 |
| 20260510104606 | 16 | 117 | 11.3 | 22.5 | 0.00 | 0.00 | 0.00 | 27 | 1021.4 |
| 20260510104102 | 16 | 357 | 19.3 | 40.2 | 0.00 | 0.00 | 0.00 | 30 | 1022.6 |
| 20260510103600 | 14 | 266 | 6.4 | 14.5 | 0.00 | 0.00 | 0.00 | 27 | 1021.3 |
| 20260510103055 | 14 | 292 | 3.2 | 4.8 | 0.00 | 0.00 | 0.00 | 27 | 1021.2 |
| 20260510102551 | 13 | 268 | 1.6 | 3.2 | 0.00 | 0.00 | 0.00 | 27 | 1020.8 |
| 20260510102047 | 13 | 265 | 1.6 | 3.2 | 0.00 | 0.00 | 0.00 | 28 | 1020.7 |
| 20260510101545 | 13 | 256 | 0.0 | 3.2 | 0.00 | 0.00 | 0.00 | 27 | 1020.7 |
| 20260510101044 | 13 | 284 | 3.2 | 3.2 | 0.00 | 0.00 | 0.00 | 27 | 1020.7 |
| 20260510100539 | 14 | 278 | 3.2 | 3.2 | 0.00 | 0.00 | 0.00 | 27 | 1020.7 |
| 20260510100037 | 14 | 264 | 1.6 | 3.2 | 0.00 | 0.00 | 0.00 | 27 | 1020.6 |
| 20260510095532 | 15 | 258 | 0.0 | 1.6 | 0.00 | 0.00 | 0.00 | 26 | 1020.6 |
| 20260510095032 | 15 | 295 | 3.2 | 4.8 | 0.00 | 0.00 | 0.00 | 25 | 1020.6 |
| 20260510094526 | 15 | 299 | 3.2 | 4.8 | 0.00 | 0.00 | 0.00 | 25 | 1020.6 |
| 20260510094022 | 15 | 300 | 3.2 | 4.8 | 0.00 | 0.00 | 0.00 | 25 | 1020.6 |
| 20260510093518 | 15 | 282 | 3.2 | 6.4 | 0.00 | 0.00 | 0.00 | 25 | 1020.3 |
| 20260510093015 | 15 | 286 | 3.2 | 4.8 | 0.00 | 0.00 | 0.00 | 25 | 1020.6 |
| 20260510092512 | 15 | 275 | 3.2 | 3.2 | 0.00 | 0.00 | 0.00 | 25 | 1020.3 |
| 20260510092012 | 14 | 268 | 1.6 | 4.8 | 0.00 | 0.00 | 0.00 | 25 | 1020.4 |
| 20260510091509 | 15 | 262 | 3.2 | 4.8 | 0.00 | 0.00 | 0.00 | 25 | 1020.2 |
| 20260510091004 | 15 | 270 | 1.6 | 3.2 | 0.00 | 0.00 | 0.00 | 25 | 1020.3 |
| 20260510090502 | 15 | 312 | 3.2 | 4.8 | 0.00 | 0.00 | 0.00 | 24 | 1020.4 |
| 20260510085957 | 15 | 247 | 1.6 | 3.2 | 0.00 | 0.00 | 0.00 | 24 | 1020.3 |
| 20260510085452 | 15 | 251 | 3.2 | 4.8 | 0.00 | 0.00 | 0.00 | 25 | 1020.3 |
| 20260510084948 | 14 | 265 | 3.2 | 4.8 | 0.00 | 0.00 | 0.00 | 25 | 1020.3 |
| 20260510084445 | 13 | 263 | 4.8 | 4.8 | 0.00 | 0.00 | 0.00 | 26 | 1020.1 |
| 20260510083942 | 13 | 245 | 3.2 | 4.8 | 0.00 | 0.00 | 0.00 | 26 | 1019.9 |
| 20260510083439 | 13 | 274 | 1.6 | 3.2 | 0.00 | 0.00 | 0.00 | 26 | 1019.9 |
| 20260510082934 | 13 | 259 | 1.6 | 3.2 | 0.00 | 0.00 | 0.00 | 25 | 1019.6 |
| 20260510082432 | 13 | 288 | 3.2 | 3.2 | 0.00 | 0.00 | 0.00 | 25 | 1019.7 |
| 20260510081931 | 13 | 293 | 3.2 | 4.8 | 0.00 | 0.00 | 0.00 | 25 | 1019.8 |
| 20260510081427 | 13 | 306 | 4.8 | 4.8 | 0.00 | 0.00 | 0.00 | 25 | 1019.7 |
| 20260510080924 | 13 | 296 | 4.8 | 4.8 | 0.00 | 0.00 | 0.00 | 25 | 1019.6 |
| 20260510080422 | 13 | 301 | 3.2 | 4.8 | 0.00 | 0.00 | 0.00 | 25 | 1019.7 |
| 20260510075919 | 14 | 284 | 3.2 | 3.2 | 0.00 | 0.00 | 0.00 | 24 | 1019.4 |
| 20260510075418 | 15 | 292 | 3.2 | 3.2 | 0.00 | 0.00 | 0.00 | 24 | 1019.6 |
| 20260510074914 | 15 | 318 | 3.2 | 4.8 | 0.00 | 0.00 | 0.00 | 23 | 1019.7 |
| 20260510074411 | 15 | 284 | 3.2 | 4.8 | 0.00 | 0.00 | 0.00 | 22 | 1019.6 |
| 20260510073908 | 15 | 305 | 3.2 | 6.4 | 0.00 | 0.00 | 0.00 | 22 | 1019.7 |
| 20260510073403 | 15 | 307 | 6.4 | 6.4 | 0.00 | 0.00 | 0.00 | 22 | 1019.6 |
| 20260510072859 | 16 | 300 | 6.4 | 9.7 | 0.00 | 0.00 | 0.00 | 22 | 1019.3 |
| 20260510072356 | 16 | 315 | 6.4 | 9.7 | 0.00 | 0.00 | 0.00 | 22 | 1019.6 |
| 20260510071852 | 16 | 290 | 4.8 | 11.3 | 0.00 | 0.00 | 0.00 | 21 | 1019.3 |
| 20260510071349 | 15 | 299 | 6.4 | 6.4 | 0.00 | 0.00 | 0.00 | 22 | 1019.3 |
| 20260510070847 | 15 | 308 | 6.4 | 9.7 | 0.00 | 0.00 | 0.00 | 23 | 1019.6 |
| 20260510070344 | 14 | 300 | 6.4 | 6.4 | 0.00 | 0.00 | 0.00 | 23 | 1019.4 |
| 20260510065838 | 13 | 288 | 6.4 | 6.4 | 0.00 | 0.00 | 0.00 | 23 | 1019.3 |
| 20260510065336 | 13 | 287 | 4.8 | 6.4 | 0.00 | 0.00 | 0.00 | 23 | 1019.2 |
| 20260510064832 | 13 | 304 | 6.4 | 6.4 | 0.00 | 0.00 | 0.00 | 23 | 1019.2 |
| 20260510064331 | 13 | 295 | 6.4 | 6.4 | 0.00 | 0.00 | 0.00 | 23 | 1019.3 |
| 20260510063826 | 13 | 307 | 4.8 | 6.4 | 0.00 | 0.00 | 0.00 | 23 | 1019.2 |
| 20260510063323 | 14 | 296 | 6.4 | 6.4 | 0.00 | 0.00 | 0.00 | 22 | 1019.3 |
| 20260510062819 | 15 | 295 | 4.8 | 4.8 | 0.00 | 0.00 | 0.00 | 21 | 1019.2 |
| 20260510062315 | 15 | 290 | 3.2 | 4.8 | 0.00 | 0.00 | 0.00 | 20 | 1019.1 |
| 20260510061810 | 15 | 261 | 1.6 | 3.2 | 0.00 | 0.00 | 0.00 | 20 | 1019.3 |
| 20260510061308 | 16 | 303 | 3.2 | 6.4 | 0.00 | 0.00 | 0.00 | 20 | 1019.1 |
| 20260510060804 | 16 | 297 | 6.4 | 9.7 | 0.00 | 0.00 | 0.00 | 19 | 1019.0 |
| 20260510060301 | 16 | 306 | 9.7 | 11.3 | 0.00 | 0.00 | 0.00 | 19 | 1019.0 |
| 20260510055758 | 16 | 296 | 6.4 | 9.7 | 0.00 | 0.00 | 0.00 | 19 | 1018.7 |
| 20260510055256 | 16 | 302 | 6.4 | 6.4 | 0.00 | 0.00 | 0.00 | 19 | 1018.6 |
| 20260510054755 | 16 | 303 | 6.4 | 9.7 | 0.00 | 0.00 | 0.00 | 19 | 1018.7 |
| 20260510054252 | 16 | 299 | 6.4 | 9.7 | 0.00 | 0.00 | 0.00 | 19 | 1018.5 |
| 20260510053752 | 16 | 309 | 6.4 | 9.7 | 0.00 | 0.00 | 0.00 | 19 | 1018.7 |
| 20260510053248 | 16 | 282 | 4.8 | 6.4 | 0.00 | 0.00 | 0.00 | 18 | 1018.5 |
| 20260510052744 | 17 | 308 | 8.0 | 9.7 | 0.00 | 0.00 | 0.00 | 18 | 1018.3 |
| 20260510052240 | 17 | 297 | 6.4 | 9.7 | 0.00 | 0.00 | 0.00 | 18 | 1018.5 |
| 20260510051736 | 17 | 320 | 6.4 | 9.7 | 0.00 | 0.00 | 0.00 | 18 | 1018.6 |
| 20260510051233 | 17 | 338 | 8.0 | 9.7 | 0.00 | 0.00 | 0.00 | 17 | 1018.5 |
| 20260510050729 | 17 | 325 | 6.4 | 11.3 | 0.00 | 0.00 | 0.00 | 17 | 1018.3 |
| 20260510050227 | 18 | 312 | 8.0 | 9.7 | 0.00 | 0.00 | 0.00 | 17 | 1018.2 |
| 20260510045723 | 18 | 341 | 6.4 | 11.3 | 0.00 | 0.00 | 0.00 | 17 | 1018.3 |
| 20260510045220 | 18 | 337 | 8.0 | 14.5 | 0.00 | 0.00 | 0.00 | 17 | 1018.3 |
| 20260510044716 | 18 | 317 | 8.0 | 14.5 | 0.00 | 0.00 | 0.00 | 17 | 1018.3 |
| 20260510044215 | 18 | 338 | 6.4 | 12.9 | 0.00 | 0.00 | 0.00 | 17 | 1018.2 |
| 20260510043709 | 18 | 279 | 8.0 | 11.3 | 0.00 | 0.00 | 0.00 | 17 | 1018.2 |
| 20260510043207 | 18 | 312 | 12.9 | 14.5 | 0.00 | 0.00 | 0.00 | 17 | 1018.1 |
| 20260510042704 | 19 | 307 | 11.3 | 16.1 | 0.00 | 0.00 | 0.00 | 17 | 1018.3 |
| 20260510042200 | 20 | 300 | 9.7 | 12.9 | 0.00 | 0.00 | 0.00 | 17 | 1018.2 |
| 20260510041657 | 20 | 303 | 8.0 | 16.1 | 0.00 | 0.00 | 0.00 | 17 | 1018.1 |
| 20260510041154 | 20 | 312 | 9.7 | 16.1 | 0.00 | 0.00 | 0.00 | 17 | 1018.3 |
| 20260510040651 | 20 | 336 | 12.9 | 16.1 | 0.00 | 0.00 | 0.00 | 17 | 1018.2 |
| 20260510040148 | 20 | 291 | 4.8 | 4.8 | 0.00 | 0.00 | 0.00 | 17 | 1018.3 |
| 20260510035643 | 20 | 259 | 4.8 | 6.4 | 0.00 | 0.00 | 0.00 | 17 | 1018.1 |
| 20260510035138 | 20 | 254 | 3.2 | 6.4 | 0.00 | 0.00 | 0.00 | 17 | 1018.0 |
| 20260510034636 | 21 | 313 | 3.2 | 6.4 | 0.00 | 0.00 | 0.00 | 16 | 1018.0 |
| 20260510034133 | 21 | 309 | 3.2 | 9.7 | 0.00 | 0.00 | 0.00 | 16 | 1017.8 |
| 20260510033629 | 21 | 327 | 9.7 | 17.7 | 0.00 | 0.00 | 0.00 | 16 | 1018.0 |
| 20260510033127 | 21 | 320 | 4.8 | 9.7 | 0.00 | 0.00 | 0.00 | 16 | 1018.1 |
| 20260510032623 | 21 | 257 | 4.8 | 14.5 | 0.00 | 0.00 | 0.00 | 16 | 1018.1 |
| 20260510032118 | 21 | 260 | 1.6 | 4.8 | 0.00 | 0.00 | 0.00 | 17 | 1018.1 |
| 20260510031613 | 21 | 216 | 9.7 | 11.3 | 0.00 | 0.00 | 0.00 | 17 | 1018.1 |
| 20260510031110 | 21 | 171 | 8.0 | 24.1 | 0.00 | 0.00 | 0.00 | 17 | 1018.0 |
| 20260510030605 | 21 | 242 | 8.0 | 11.3 | 0.00 | 0.00 | 0.00 | 16 | 1018.3 |
| 20260510030103 | 21 | 282 | 11.3 | 16.1 | 0.00 | 0.00 | 0.00 | 16 | 1018.0 |
| 20260510025600 | 21 | 238 | 9.7 | 20.9 | 0.00 | 0.00 | 0.00 | 16 | 1017.7 |
| 20260510025057 | 21 | 300 | 9.7 | 12.9 | 0.00 | 0.00 | 0.00 | 17 | 1017.6 |
| 20260510024554 | 21 | 314 | 14.5 | 20.9 | 0.00 | 0.00 | 0.00 | 17 | 1017.8 |
| 20260510024050 | 21 | 335 | 11.3 | 12.9 | 0.00 | 0.00 | 0.00 | 17 | 1017.5 |
| 20260510023546 | 21 | 268 | 19.3 | 25.7 | 0.00 | 0.00 | 0.00 | 16 | 1017.6 |
| 20260510023045 | 21 | 276 | 14.5 | 16.1 | 0.00 | 0.00 | 0.00 | 17 | 1017.5 |
| 20260510022544 | 21 | 312 | 8.0 | 12.9 | 0.00 | 0.00 | 0.00 | 16 | 1017.3 |
| 20260510022044 | 22 | 312 | 9.7 | 14.5 | 0.00 | 0.00 | 0.00 | 16 | 1017.1 |
| 20260510021540 | 22 | 281 | 14.5 | 17.7 | 0.00 | 0.00 | 0.00 | 16 | 1017.0 |
| 20260510021038 | 22 | 249 | 14.5 | 30.6 | 0.00 | 0.00 | 0.00 | 16 | 1017.0 |
| 20260510020538 | 21 | 219 | 6.4 | 17.7 | 0.00 | 0.00 | 0.00 | 16 | 1017.2 |
| 20260510020034 | 22 | 314 | 11.3 | 16.1 | 0.00 | 0.00 | 0.00 | 16 | 1017.0 |
| 20260510015530 | 22 | 331 | 9.7 | 12.9 | 0.00 | 0.00 | 0.00 | 15 | 1017.0 |
| 20260510015025 | 22 | 272 | 9.7 | 14.5 | 0.00 | 0.00 | 0.00 | 15 | 1016.9 |
| 20260510014522 | 22 | 285 | 8.0 | 17.7 | 0.00 | 0.00 | 0.00 | 15 | 1016.9 |
| 20260510014020 | 22 | 273 | 9.7 | 25.7 | 0.00 | 0.00 | 0.00 | 15 | 1016.7 |
| 20260510013514 | 22 | 311 | 9.7 | 17.7 | 0.00 | 0.00 | 0.00 | 15 | 1016.9 |
| 20260510013010 | 22 | 249 | 8.0 | 12.9 | 0.00 | 0.00 | 0.00 | 14 | 1016.6 |
| 20260510012504 | 22 | 236 | 3.2 | 9.7 | 0.00 | 0.00 | 0.00 | 14 | 1016.6 |
| 20260510012000 | 23 | 246 | 9.7 | 12.9 | 0.00 | 0.00 | 0.00 | 14 | 1016.6 |
| 20260510011455 | 23 | 271 | 3.2 | 9.7 | 0.00 | 0.00 | 0.00 | 14 | 1016.6 |
| 20260510010951 | 23 | 262 | 12.9 | 14.5 | 0.00 | 0.00 | 0.00 | 13 | 1016.5 |
| 20260510010448 | 23 | 270 | 1.6 | 6.4 | 0.00 | 0.00 | 0.00 | 14 | 1016.5 |
| 20260510005945 | 23 | 124 | 1.6 | 17.7 | 0.00 | 0.00 | 0.00 | 13 | 1016.6 |
| 20260510005441 | 23 | 256 | 11.3 | 20.9 | 0.00 | 0.00 | 0.00 | 13 | 1016.5 |
| 20260510004939 | 23 | 248 | 11.3 | 16.1 | 0.00 | 0.00 | 0.00 | 13 | 1016.4 |
| 20260510004436 | 23 | 236 | 14.5 | 17.7 | 0.00 | 0.00 | 0.00 | 13 | 1016.4 |
| 20260510003934 | 23 | 212 | 9.7 | 27.4 | 0.00 | 0.00 | 0.00 | 13 | 1016.2 |
| 20260510003430 | 23 | 225 | 6.4 | 12.9 | 0.00 | 0.00 | 0.00 | 12 | 1016.2 |
| 20260510002930 | 23 | 296 | 9.7 | 12.9 | 0.00 | 0.00 | 0.00 | 12 | 1016.0 |
| 20260510002427 | 23 | 328 | 8.0 | 12.9 | 0.00 | 0.00 | 0.00 | 12 | 1016.4 |
| 20260510001923 | 24 | 247 | 6.4 | 11.3 | 0.00 | 0.00 | 0.00 | 12 | 1016.4 |
| 20260510001421 | 24 | 242 | 8.0 | 9.7 | 0.00 | 0.00 | 0.00 | 12 | 1016.2 |
| 20260510000919 | 24 | 320 | 12.9 | 25.7 | 0.00 | 0.00 | 0.00 | 12 | 1016.4 |
| 20260510000415 | 25 | 298 | 8.0 | 22.5 | 0.00 | 0.00 | 0.00 | 11 | 1016.2 |
| 20260509235911 | 25 | 278 | 12.9 | 24.1 | 0.00 | 0.00 | 0.00 | 11 | 1016.4 |
| 20260509235408 | 25 | 301 | 6.4 | 11.3 | 0.00 | 0.00 | 0.00 | 12 | 1016.4 |
| 20260509234904 | 25 | 327 | 9.7 | 12.9 | 0.00 | 0.00 | 0.00 | 12 | 1016.2 |
| 20260509234401 | 25 | 279 | 24.1 | 29.0 | 0.00 | 0.00 | 0.00 | 11 | 1016.4 |
| 20260509233859 | 25 | 223 | 9.7 | 12.9 | 0.00 | 0.00 | 0.00 | 11 | 1016.2 |
| 20260509233356 | 26 | 251 | 9.7 | 27.4 | 0.00 | 0.00 | 0.00 | 11 | 1016.4 |
| 20260509232852 | 26 | 356 | 17.7 | 22.5 | 0.00 | 0.00 | 0.00 | 11 | 1016.5 |
| 20260509232350 | 25 | 262 | 17.7 | 22.5 | 0.00 | 0.00 | 0.00 | 11 | 1016.4 |
| 20260509231846 | 25 | 254 | 11.3 | 22.5 | 0.00 | 0.00 | 0.00 | 11 | 1016.4 |
| 20260509231343 | 25 | 296 | 3.2 | 14.5 | 0.00 | 0.00 | 0.00 | 12 | 1016.4 |